Location: Observatory
(52.1446°N, 0.4624°W)
Time: 05:50:18
(UTC+00:00)

ISS - Pass Details

Date: 22 January 2021
Orbit: 418 x 421 km, 51.6° (Epoch: 23 January)

Event Time Altitude Azimuth Distance (km) Brightness Sun altitude
Rises 19:16:17 0° 248° (WSW) 2,367 1.2 -24.8°
Reaches altitude 10° 19:18:24 10° 245° (WSW) 1,505 -0.1 -25.1°
Enters shadow 19:20:07 27° 236° (WSW) 842 -1.8 -25.4°
